Regional Weather Roundup
Issued by NWS

Home | Current Version | Previous Version | Text Only | Print | Product List | Glossary On
Versions: 1 2 3 4 5 6 7 8 9 10 11 12 13 14 15 16 17 18 19 20 21 22 23 24 25 26 27 28 29 30 31 32 33 34 35 36 37 38 39 40 41 42 43 44 45 46 47 48 49 50
000
ASUS43 KDTX 262210
RWRMI
MICHIGAN HOURLY REGIONAL WEATHER ROUNDUP
NATIONAL WEATHER SERVICE DETROIT/PONTIAC MI
600 PM EDT MON SEP 26 2016

NOTE: "FAIR" INDICATES FEW OR NO CLOUDS BELOW 12,000 FEET WITH NO
SIGNIFICANT WEATHER AND/OR OBSTRUCTION TO VISIBILITY.

MIZ047>049-052>055-059>063-066>070-074>076-081>083-262300-
SOUTHEAST LOWER MICHIGAN

CITY           SKY/WX    TMP DP  RH WIND       PRES   REMARKS
ADRIAN         SUNNY     67  38  34 W12G24    29.92R
ALMA           PTSUNNY   63  44  49 W15G21    29.86R
ANN ARBOR      SUNNY     66  40  38 SW18G26   29.88S
BAD AXE        MOSUNNY   64  42  44 W16G22    29.82S
CARO           PTSUNNY   64  44  47 SW16G22   29.83S
DETROIT CITY   MOSUNNY   68  41  37 W17G24    29.87S
DETROIT        MOSUNNY   68  41  37 W16G29    29.89R
FLINT          SUNNY     65  42  43 W18G26    29.86R
GROSSE ILE     MOSUNNY   68  44  42 W7        29.88S
HILLSDALE      SUNNY     66  37  34 SW12G17   29.90F
HOWELL         MOSUNNY   65  41  42 W21       29.88S

CITY           SKY/WX    TMP DP  RH WIND       PRES   REMARKS
JACKSON        MOSUNNY   65  41  41 W22G29    29.89F
LAMBERTVILLE   SUNNY     69  40  34 W13G21    29.91S
LANSING        MOSUNNY   63  41  44 W16G29    29.89R
LAPEER         PTSUNNY   65  41  41 W13G20    29.86R
MASON          MOSUNNY   64  40  42 W13G23    29.89S
MONROE         SUNNY     68  44  42 W15       29.89S
MT. CLEMENS    MOSUNNY   67  43  42 W12       29.85R
PONTIAC        MOSUNNY   65  41  41 W18G28    29.86S
PORT HOPE        N/A     65  45  48 W8G16     29.79R
PORT HURON     MOSUNNY   64  48  55 W7        29.86R
TRI CITIES     MOSUNNY   65  43  44 W21G33    29.83R
MIDLAND        PTSUNNY   63  44  51 W7G17     29.82R
TROY           SUNNY     69  36  29 W14G23    29.89R
SAGINAW HB     MOSUNNY   64  41  42 SW14G25   29.83R
$$
MIZ043>046-050>051-056>058-064>065-071>073-077>080-262300-
SOUTHWEST LOWER MICHIGAN

CITY           SKY/WX    TMP DP  RH WIND       PRES   REMARKS
BATTLE CREEK   PTSUNNY   65  43  44 W13       29.91S
BENTON HARBOR  MOSUNNY   67  39  35 W20G25    29.91F
BIG RAPIDS     LGT RAIN  58  44  59 W6G18     29.83R
COLDWATER      SUNNY     67  35  31 W10G20    29.91S
FREMONT        FAIR      60  33  36 W10G20    29.85R
HOLLAND        MOSUNNY   64  40  41 W15G24    29.89F
GRAND RAPIDS   PTSUNNY   63  40  42 W20G28    29.88S
IONIA          FAIR      62  39  42 W20G28    29.87R
KALAMAZOO      MOSUNNY   66  37  34 W20G29    29.92S
LUDINGTON      PTSUNNY   63  42  46 W16G26    29.81S
MARSHALL       SUNNY     64  40  41 W14G24    29.90S
MOUNT PLEASANT PTSUNNY   64  44  48 SW14G22   29.82S
MUSKEGON       PTSUNNY   66  40  38 W16G30    29.87S
SOUTH HAVEN    MOSUNNY   67  40  36 W15G21    29.91S
$$
MIZ016>042-262300-
NORTHERN LOWER MICHIGAN

CITY           SKY/WX    TMP DP  RH WIND       PRES   REMARKS
ALPENA         CLOUDY    60  45  57 W13G20    29.75S
BEAVER ISLAND  CLOUDY    58  47  68 W22G33    29.68S
BELLAIRE       CLOUDY    54  48  79 SW9       29.74F
CADILLAC       MOSUNNY   59  40  49 W9G26     29.79R
CHARLEVOIX     LGT RAIN  54  49  81 W21G31    29.74R
FRANKFORT      CLOUDY    61  43  51 NW22G30   29.76S
GAYLORD        LGT RAIN  52  46  80 W20G29    29.76R
GRAYLING       CLOUDY    57  46  66 SW6       29.77F
HARBOR SPRINGS LGT RAIN  56  51  84 SW17G28   29.70R
HOUGHTON LAKE  SUNNY     61  40  45 W17G33    29.79S
MANISTEE       CLOUDY    62  40  44 W24G33    29.78F
OSCODA         CLOUDY    60  46  58 W9        29.77S
PELLSTON       LGT RAIN  54  50  86 S7        29.70S
ROGERS CITY    CLOUDY    58  47  67 SW12G18   29.74R
TRAVERSE CITY  LGT RAIN  56  45  66 W20G31    29.75R
$$
MIZ007>008-015-262300-
EASTERN UPPER MICHIGAN

CITY           SKY/WX    TMP DP  RH WIND       PRES   REMARKS
MACKINAC ISLAN RAIN      55  50  81 W18G36    29.67R
NEWBERRY       CLOUDY    53  51  92 SW12      29.64S
S. S. MARIE    CLOUDY    59  49  69 SW9       29.63S
MUNISING         N/A     55  47  74 SW8G20    29.63S
$$
MIZ004>006-011>014-085-262300-
CENTRAL UPPER MICHIGAN

CITY           SKY/WX    TMP DP  RH WIND       PRES   REMARKS
MANISTIQUE     CLOUDY    56  45  67 W15G24    29.68R
ESCANABA       CLOUDY    56  45  66 W21G28    29.69S
MENOMINEE      CLOUDY    59  43  55 W9G18     29.74S
SAWYER-GWINN   CLOUDY    52  45  76 W15G25    29.65S
$$
MIZ001>003-009>011-084-262300-
WESTERN UPPER MICHIGAN

CITY           SKY/WX    TMP DP  RH WIND       PRES   REMARKS
IRON MOUNTAIN  CLOUDY    53  42  66 W12       29.69S
HOUGHTON       LGT RAIN  51  47  86 W25G40    29.55S
IRONWOOD       LGT RAIN  49  47  93 W17G28    29.71R
$$

ABBREVIATIONS USED IN REMARKS
   TC - TEMPERATURE IN CELSIUS
  WCI - WIND CHILL INDEX
   HX - HEAT INDEX
  VSB - VISIBILITY





USA.gov is the U.S. government's official web portal to all federal, state and local government web resources and services.